| time (UTC) | temp F | wind direction | speed knots | gust knots | rain 1hr in | rain 24hr in | rain mn in | humidity % | barometer mb |
| 20260510112704 | 60 | 356 | 0.0 | 1.7 | 0.00 | 0.00 | 0.00 | 93 | 1010.9 |
| 20260510112204 | 59 | 8 | 0.0 | 0.9 | 0.00 | 0.00 | 0.00 | 93 | 1010.7 |
| 20260510111704 | 59 | 349 | 0.9 | 4.3 | 0.00 | 0.00 | 0.00 | 93 | 1010.7 |
| 20260510111204 | 59 | 12 | 0.9 | 2.6 | 0.00 | 0.00 | 0.00 | 93 | 1010.5 |
| 20260510110704 | 58 | 43 | 0.9 | 2.6 | 0.00 | 0.00 | 0.00 | 93 | 1010.5 |
| 20260510110204 | 58 | 53 | 0.9 | 2.6 | 0.00 | 0.00 | 0.00 | 92 | 1010.4 |
| 20260510105204 | 57 | 38 | 0.0 | 1.7 | 0.00 | 0.00 | 0.00 | 92 | 1010.3 |
| 20260510104204 | 57 | 52 | 0.9 | 2.6 | 0.00 | 0.00 | 0.00 | 92 | 1010.2 |
| 20260510103704 | 57 | 344 | 0.0 | 0.9 | 0.00 | 0.00 | 0.00 | 91 | 1010.1 |
| 20260510102704 | 57 | 326 | 0.0 | 1.7 | 0.00 | 0.00 | 0.00 | 91 | 1010.0 |
| 20260510102204 | 57 | 29 | 0.0 | 2.6 | 0.00 | 0.00 | 0.00 | 91 | 1010.1 |
| 20260510101704 | 56 | 49 | 0.0 | 2.6 | 0.00 | 0.00 | 0.00 | 91 | 1010.0 |
| 20260510101204 | 57 | 350 | 0.0 | 1.7 | 0.00 | 0.00 | 0.00 | 91 | 1010.1 |
| 20260510100704 | 57 | 337 | 0.9 | 2.6 | 0.00 | 0.00 | 0.00 | 91 | 1010.0 |
| 20260510100205 | 56 | 329 | 0.0 | 0.9 | 0.00 | 0.00 | 0.00 | 91 | 1009.9 |
| 20260510094705 | 57 | 337 | 0.9 | 2.6 | 0.00 | 0.00 | 0.00 | 91 | 1009.9 |
| 20260510094206 | 57 | 353 | 0.0 | 2.6 | 0.00 | 0.00 | 0.00 | 91 | 1009.9 |
| 20260510093705 | 57 | 339 | 0.9 | 2.6 | 0.00 | 0.00 | 0.00 | 91 | 1009.7 |
| 20260510093205 | 57 | 333 | 0.0 | 0.9 | 0.00 | 0.00 | 0.00 | 91 | 1009.8 |
| 20260510092706 | 57 | 290 | 0.0 | 1.7 | 0.00 | 0.00 | 0.00 | 91 | 1009.8 |
| 20260510091205 | 57 | 291 | 0.0 | 0.0 | 0.00 | 0.00 | 0.00 | 90 | 1009.5 |
| 20260510090705 | 57 | 291 | 0.0 | 0.0 | 0.00 | 0.00 | 0.00 | 90 | 1009.5 |
| 20260510090206 | 57 | 291 | 0.0 | 0.0 | 0.00 | 0.00 | 0.00 | 91 | 1009.4 |
| 20260510085706 | 57 | 245 | 0.0 | 0.0 | 0.00 | 0.00 | 0.00 | 91 | 1009.4 |
| 20260510085205 | 57 | 245 | 0.0 | 0.0 | 0.00 | 0.00 | 0.00 | 90 | 1009.3 |
| 20260510084205 | 57 | 245 | 0.0 | 0.0 | 0.00 | 0.00 | 0.00 | 90 | 1009.2 |
| 20260510083705 | 57 | 254 | 0.0 | 1.7 | 0.00 | 0.00 | 0.00 | 90 | 1009.1 |
| 20260510083205 | 58 | 310 | 0.0 | 0.0 | 0.00 | 0.00 | 0.00 | 90 | 1008.9 |
| 20260510082706 | 58 | 203 | 0.0 | 0.0 | 0.00 | 0.00 | 0.00 | 90 | 1009.0 |
| 20260510082206 | 58 | 203 | 0.0 | 0.0 | 0.00 | 0.00 | 0.00 | 91 | 1008.8 |
| 20260510081706 | 58 | 203 | 0.0 | 0.0 | 0.00 | 0.00 | 0.00 | 90 | 1008.9 |
| 20260510080706 | 58 | 203 | 0.0 | 0.0 | 0.00 | 0.00 | 0.00 | 90 | 1008.7 |
| 20260510080205 | 58 | 203 | 0.0 | 0.0 | 0.00 | 0.00 | 0.00 | 90 | 1008.6 |
| 20260510075706 | 58 | 203 | 0.0 | 0.0 | 0.00 | 0.00 | 0.00 | 90 | 1008.6 |
| 20260510075205 | 58 | 203 | 0.0 | 0.0 | 0.00 | 0.00 | 0.00 | 89 | 1008.6 |
| 20260510074706 | 58 | 203 | 0.0 | 1.7 | 0.00 | 0.00 | 0.00 | 89 | 1008.7 |
| 20260510074205 | 58 | 217 | 0.9 | 2.6 | 0.00 | 0.00 | 0.00 | 89 | 1008.6 |
| 20260510073705 | 58 | 199 | 0.0 | 0.9 | 0.00 | 0.00 | 0.00 | 89 | 1008.6 |
| 20260510073205 | 58 | 288 | 0.0 | 1.7 | 0.00 | 0.00 | 0.00 | 90 | 1008.6 |
| 20260510072705 | 58 | 257 | 0.0 | 4.3 | 0.00 | 0.00 | 0.00 | 90 | 1008.6 |
| 20260510072205 | 58 | 231 | 4.3 | 5.2 | 0.00 | 0.00 | 0.00 | 90 | 1008.6 |
| 20260510071706 | 58 | 228 | 4.3 | 6.1 | 0.00 | 0.00 | 0.00 | 90 | 1008.6 |
| 20260510071205 | 58 | 224 | 4.3 | 6.1 | 0.00 | 0.00 | 0.00 | 90 | 1008.6 |
| 20260510070705 | 58 | 217 | 2.6 | 5.2 | 0.00 | 0.00 | 0.00 | 89 | 1008.6 |
| 20260510070206 | 58 | 184 | 0.0 | 0.0 | 0.00 | 0.00 | 0.00 | 89 | 1008.5 |
| 20260510065706 | 58 | 190 | 0.0 | 0.0 | 0.00 | 0.00 | 0.00 | 89 | 1008.6 |
| 20260510065205 | 58 | 197 | 0.0 | 1.7 | 0.00 | 0.00 | 0.00 | 89 | 1008.5 |
| 20260510064706 | 58 | 213 | 0.9 | 2.6 | 0.00 | 0.00 | 0.00 | 89 | 1008.5 |
| 20260510064205 | 58 | 193 | 1.7 | 2.6 | 0.00 | 0.00 | 0.00 | 89 | 1008.4 |
| 20260510063706 | 58 | 208 | 0.9 | 2.6 | 0.00 | 0.00 | 0.00 | 89 | 1008.3 |
| 20260510063205 | 59 | 215 | 1.7 | 4.3 | 0.00 | 0.00 | 0.00 | 89 | 1008.3 |
| 20260510062206 | 58 | 222 | 0.9 | 2.6 | 0.00 | 0.00 | 0.00 | 89 | 1008.5 |
| 20260510061205 | 58 | 214 | 0.0 | 2.6 | 0.00 | 0.00 | 0.00 | 88 | 1008.5 |
| 20260510060705 | 58 | 198 | 0.0 | 2.6 | 0.00 | 0.00 | 0.00 | 88 | 1008.5 |
| 20260510055705 | 58 | 221 | 2.6 | 5.2 | 0.00 | 0.00 | 0.00 | 88 | 1008.4 |
| 20260510055205 | 58 | 212 | 2.6 | 5.2 | 0.00 | 0.00 | 0.00 | 88 | 1008.5 |
| 20260510054705 | 58 | 210 | 2.6 | 4.3 | 0.00 | 0.00 | 0.00 | 87 | 1008.4 |
| 20260510054206 | 58 | 201 | 1.7 | 4.3 | 0.00 | 0.00 | 0.00 | 87 | 1008.5 |
| 20260510053205 | 58 | 204 | 0.9 | 2.6 | 0.00 | 0.00 | 0.00 | 85 | 1008.5 |
| 20260510052706 | 59 | 90 | 0.0 | 0.0 | 0.00 | 0.00 | 0.00 | 85 | 1008.6 |
| 20260510052205 | 59 | 34 | 0.0 | 0.0 | 0.00 | 0.00 | 0.00 | 85 | 1008.6 |
| 20260510051705 | 59 | 34 | 0.0 | 0.0 | 0.00 | 0.00 | 0.00 | 85 | 1008.6 |
| 20260510051206 | 59 | 34 | 0.0 | 0.0 | 0.00 | 0.00 | 0.00 | 85 | 1008.5 |
| 20260510050705 | 59 | 34 | 0.0 | 0.0 | 0.00 | 0.00 | 0.00 | 83 | 1008.6 |
| 20260510050205 | 59 | 34 | 0.0 | 0.0 | 0.00 | 0.00 | 0.00 | 83 | 1008.6 |
| 20260510045705 | 59 | 34 | 0.0 | 0.0 | 0.00 | 0.00 | 0.00 | 82 | 1008.6 |
| 20260510044705 | 60 | 20 | 0.0 | 0.0 | 0.00 | 0.00 | 0.00 | 81 | 1008.6 |
| 20260510043205 | 60 | 356 | 0.0 | 0.0 | 0.00 | 0.00 | 0.00 | 81 | 1008.6 |
| 20260510042706 | 60 | 356 | 0.0 | 0.0 | 0.00 | 0.00 | 0.00 | 80 | 1008.6 |
| 20260510042205 | 61 | 356 | 0.0 | 0.9 | 0.00 | 0.00 | 0.00 | 79 | 1008.6 |
| 20260510041206 | 61 | 158 | 0.0 | 1.7 | 0.00 | 0.00 | 0.00 | 78 | 1008.6 |
| 20260510040705 | 62 | 171 | 0.0 | 2.6 | 0.00 | 0.00 | 0.00 | 78 | 1008.6 |
| 20260510040205 | 62 | 173 | 0.9 | 2.6 | 0.00 | 0.00 | 0.00 | 78 | 1008.5 |
| 20260510035705 | 62 | 183 | 0.9 | 2.6 | 0.00 | 0.00 | 0.00 | 78 | 1008.6 |
| 20260510035206 | 62 | 178 | 2.6 | 4.3 | 0.00 | 0.00 | 0.00 | 79 | 1008.5 |
| 20260510034705 | 62 | 173 | 1.7 | 4.3 | 0.00 | 0.00 | 0.00 | 80 | 1008.5 |
| 20260510033705 | 62 | 179 | 0.9 | 2.6 | 0.00 | 0.00 | 0.00 | 81 | 1008.5 |
| 20260510033206 | 61 | 169 | 1.7 | 4.3 | 0.00 | 0.00 | 0.00 | 82 | 1008.4 |
| 20260510032706 | 61 | 166 | 0.9 | 4.3 | 0.00 | 0.00 | 0.00 | 81 | 1008.4 |
| 20260510031206 | 62 | 160 | 1.7 | 2.6 | 0.00 | 0.00 | 0.00 | 77 | 1008.4 |
| 20260510030705 | 62 | 142 | 0.0 | 1.7 | 0.00 | 0.00 | 0.00 | 77 | 1008.2 |
| 20260510030205 | 62 | 148 | 0.0 | 0.0 | 0.00 | 0.00 | 0.00 | 77 | 1008.2 |
| 20260510025706 | 62 | 150 | 0.0 | 0.0 | 0.00 | 0.00 | 0.00 | 76 | 1008.2 |
| 20260510025206 | 63 | 144 | 0.0 | 0.0 | 0.00 | 0.00 | 0.00 | 77 | 1008.2 |
| 20260510024205 | 63 | 143 | 0.0 | 0.0 | 0.00 | 0.00 | 0.00 | 78 | 1008.3 |
| 20260510023705 | 63 | 143 | 0.0 | 0.0 | 0.00 | 0.00 | 0.00 | 77 | 1008.2 |
| 20260510023205 | 63 | 143 | 0.0 | 0.0 | 0.00 | 0.00 | 0.00 | 76 | 1008.2 |
| 20260510022705 | 63 | 143 | 0.0 | 0.0 | 0.00 | 0.00 | 0.00 | 76 | 1008.1 |
| 20260510022205 | 63 | 136 | 0.0 | 0.0 | 0.00 | 0.00 | 0.00 | 77 | 1008.0 |
| 20260510021706 | 64 | 136 | 0.0 | 0.0 | 0.00 | 0.00 | 0.00 | 77 | 1008.0 |
| 20260510021205 | 64 | 134 | 0.0 | 0.0 | 0.00 | 0.00 | 0.00 | 77 | 1008.0 |
| 20260510020705 | 64 | 143 | 0.0 | 0.0 | 0.00 | 0.00 | 0.00 | 77 | 1007.9 |
| 20260510020206 | 64 | 141 | 0.0 | 0.0 | 0.00 | 0.00 | 0.00 | 76 | 1008.1 |
| 20260510015706 | 64 | 121 | 0.0 | 0.0 | 0.00 | 0.00 | 0.00 | 76 | 1007.9 |
| 20260510015205 | 64 | 130 | 0.0 | 1.7 | 0.00 | 0.00 | 0.00 | 76 | 1007.9 |
| 20260510014706 | 65 | 134 | 0.0 | 0.9 | 0.00 | 0.00 | 0.00 | 75 | 1007.9 |
| 20260510014205 | 65 | 134 | 0.0 | 0.9 | 0.00 | 0.00 | 0.00 | 72 | 1007.9 |
| 20260510013705 | 65 | 140 | 0.0 | 1.7 | 0.00 | 0.00 | 0.00 | 73 | 1007.9 |
| 20260510013205 | 65 | 130 | 0.0 | 0.9 | 0.00 | 0.00 | 0.00 | 71 | 1007.9 |
| 20260510012205 | 65 | 130 | 0.0 | 0.9 | 0.00 | 0.00 | 0.00 | 72 | 1007.8 |
| 20260510011205 | 66 | 151 | 0.9 | 2.6 | 0.00 | 0.00 | 0.00 | 70 | 1007.7 |
| 20260510005706 | 66 | 131 | 0.0 | 1.7 | 0.00 | 0.00 | 0.00 | 70 | 1007.8 |
| 20260510005205 | 66 | 128 | 0.9 | 2.6 | 0.00 | 0.00 | 0.00 | 70 | 1007.7 |
| 20260510004706 | 67 | 140 | 0.9 | 2.6 | 0.00 | 0.00 | 0.00 | 70 | 1007.7 |
| 20260510003706 | 67 | 138 | 0.9 | 2.6 | 0.00 | 0.00 | 0.00 | 71 | 1007.6 |
| 20260510002705 | 67 | 126 | 1.7 | 5.2 | 0.00 | 0.00 | 0.00 | 71 | 1007.4 |
| 20260510002205 | 67 | 152 | 2.6 | 6.1 | 0.00 | 0.00 | 0.00 | 70 | 1007.4 |
| 20260510001705 | 67 | 153 | 0.9 | 4.3 | 0.00 | 0.00 | 0.00 | 71 | 1007.4 |
| 20260510001205 | 67 | 148 | 1.7 | 2.6 | 0.00 | 0.00 | 0.00 | 71 | 1007.4 |
| 20260510000705 | 67 | 136 | 0.9 | 2.6 | 0.00 | 0.00 | 0.00 | 71 | 1007.4 |
| 20260510000205 | 67 | 138 | 1.7 | 2.6 | 0.00 | 0.00 | 0.00 | 69 | 1007.4 |
| 20260509235706 | 68 | 132 | 0.0 | 1.7 | 0.00 | 0.00 | 0.00 | 69 | 1007.4 |
| 20260509235205 | 68 | 154 | 0.9 | 2.6 | 0.00 | 0.00 | 0.00 | 68 | 1007.3 |
| 20260509234705 | 68 | 160 | 0.9 | 2.6 | 0.00 | 0.00 | 0.00 | 66 | 1007.3 |
| 20260509234205 | 68 | 172 | 0.9 | 4.3 | 0.00 | 0.00 | 0.00 | 66 | 1007.3 |
| 20260509233705 | 68 | 183 | 2.6 | 4.3 | 0.00 | 0.00 | 0.00 | 65 | 1007.2 |
| 20260509233205 | 69 | 187 | 4.3 | 6.1 | 0.00 | 0.00 | 0.00 | 65 | 1007.1 |
| 20260509232705 | 69 | 205 | 4.3 | 7.0 | 0.00 | 0.00 | 0.00 | 64 | 1007.0 |
| 20260509231705 | 69 | 182 | 3.5 | 5.2 | 0.00 | 0.00 | 0.00 | 63 | 1007.0 |
| 20260509231205 | 69 | 178 | 4.3 | 7.8 | 0.00 | 0.00 | 0.00 | 62 | 1007.0 |
| 20260509230705 | 70 | 193 | 4.3 | 7.0 | 0.00 | 0.00 | 0.00 | 62 | 1007.0 |
| 20260509230205 | 70 | 169 | 4.3 | 7.0 | 0.00 | 0.00 | 0.00 | 61 | 1007.0 |
| 20260509225705 | 70 | 167 | 3.5 | 7.8 | 0.00 | 0.00 | 0.00 | 61 | 1007.1 |
| 20260509225205 | 70 | 186 | 2.6 | 7.8 | 0.00 | 0.00 | 0.00 | 61 | 1007.0 |
| 20260509224205 | 71 | 187 | 3.5 | 5.2 | 0.00 | 0.00 | 0.00 | 60 | 1007.1 |
| 20260509223705 | 71 | 185 | 4.3 | 7.0 | 0.00 | 0.00 | 0.00 | 60 | 1007.3 |
| 20260509223204 | 71 | 192 | 4.3 | 7.0 | 0.00 | 0.00 | 0.00 | 60 | 1007.3 |
| 20260509221705 | 72 | 202 | 2.6 | 5.2 | 0.00 | 0.00 | 0.00 | 59 | 1007.1 |
| 20260509221205 | 72 | 171 | 3.5 | 7.0 | 0.00 | 0.00 | 0.00 | 58 | 1007.1 |
| 20260509220205 | 73 | 197 | 4.3 | 8.7 | 0.00 | 0.00 | 0.00 | 57 | 1007.1 |
| 20260509215705 | 73 | 174 | 4.3 | 10.4 | 0.00 | 0.00 | 0.00 | 56 | 1007.1 |
| 20260509215205 | 73 | 188 | 4.3 | 10.4 | 0.00 | 0.00 | 0.00 | 55 | 1007.0 |
| 20260509214705 | 74 | 212 | 6.1 | 10.4 | 0.00 | 0.00 | 0.00 | 53 | 1007.0 |
| 20260509214205 | 74 | 205 | 7.0 | 8.7 | 0.00 | 0.00 | 0.00 | 54 | 1006.9 |
| 20260509213705 | 74 | 215 | 6.1 | 8.7 | 0.00 | 0.00 | 0.00 | 53 | 1007.0 |
| 20260509212205 | 74 | 188 | 7.0 | 13.0 | 0.00 | 0.00 | 0.00 | 54 | 1006.8 |
| 20260509211705 | 74 | 186 | 7.8 | 12.2 | 0.00 | 0.00 | 0.00 | 53 | 1006.7 |
| 20260509211205 | 74 | 185 | 7.8 | 11.3 | 0.00 | 0.00 | 0.00 | 53 | 1006.6 |
| 20260509210705 | 74 | 211 | 6.1 | 13.0 | 0.00 | 0.00 | 0.00 | 56 | 1006.8 |
| 20260509210205 | 74 | 218 | 6.1 | 10.4 | 0.00 | 0.00 | 0.00 | 57 | 1006.8 |
| 20260509205705 | 74 | 182 | 7.0 | 13.9 | 0.00 | 0.00 | 0.00 | 58 | 1006.9 |
| 20260509205205 | 74 | 190 | 7.8 | 12.2 | 0.00 | 0.00 | 0.00 | 56 | 1006.9 |
| 20260509204705 | 74 | 201 | 6.1 | 7.8 | 0.00 | 0.00 | 0.00 | 56 | 1006.9 |
| 20260509204205 | 74 | 210 | 6.1 | 8.7 | 0.00 | 0.00 | 0.00 | 58 | 1006.8 |
| 20260509203705 | 74 | 193 | 6.1 | 11.3 | 0.00 | 0.00 | 0.00 | 58 | 1006.9 |
| 20260509203205 | 74 | 225 | 7.0 | 11.3 | 0.00 | 0.00 | 0.00 | 57 | 1006.9 |
| 20260509202705 | 73 | 207 | 6.1 | 10.4 | 0.00 | 0.00 | 0.00 | 58 | 1007.0 |
| 20260509201705 | 73 | 150 | 7.0 | 12.2 | 0.00 | 0.00 | 0.00 | 60 | 1007.0 |
| 20260509201205 | 73 | 179 | 6.1 | 12.2 | 0.00 | 0.00 | 0.00 | 60 | 1007.0 |
| 20260509200704 | 72 | 151 | 6.1 | 10.4 | 0.00 | 0.00 | 0.00 | 60 | 1007.1 |
| 20260509200205 | 72 | 166 | 5.2 | 11.3 | 0.00 | 0.00 | 0.00 | 63 | 1007.2 |
| 20260509195705 | 71 | 204 | 6.1 | 11.3 | 0.00 | 0.00 | 0.00 | 64 | 1007.3 |
| 20260509195206 | 71 | 175 | 6.1 | 10.4 | 0.00 | 0.00 | 0.00 | 64 | 1007.3 |
| 20260509194705 | 71 | 176 | 4.3 | 7.8 | 0.00 | 0.00 | 0.00 | 63 | 1007.3 |
| 20260509194205 | 70 | 153 | 6.1 | 12.2 | 0.00 | 0.00 | 0.00 | 63 | 1007.4 |
| 20260509193705 | 70 | 167 | 5.2 | 10.4 | 0.00 | 0.00 | 0.00 | 65 | 1007.5 |
| 20260509193205 | 70 | 180 | 4.3 | 8.7 | 0.00 | 0.00 | 0.00 | 63 | 1007.6 |
| 20260509192705 | 70 | 195 | 5.2 | 8.7 | 0.00 | 0.00 | 0.00 | 63 | 1007.6 |
| 20260509192205 | 70 | 168 | 4.3 | 7.0 | 0.00 | 0.00 | 0.00 | 63 | 1007.7 |
| 20260509191705 | 70 | 183 | 4.3 | 8.7 | 0.00 | 0.00 | 0.00 | 61 | 1008.0 |
| 20260509191205 | 70 | 210 | 5.2 | 8.7 | 0.00 | 0.00 | 0.00 | 62 | 1008.2 |
| 20260509190705 | 70 | 193 | 4.3 | 7.0 | 0.00 | 0.00 | 0.00 | 61 | 1008.2 |
| 20260509190205 | 71 | 187 | 5.2 | 12.2 | 0.00 | 0.00 | 0.00 | 61 | 1008.3 |
| 20260509185705 | 71 | 242 | 6.1 | 12.2 | 0.00 | 0.00 | 0.00 | 61 | 1008.4 |
| 20260509185205 | 71 | 214 | 7.0 | 10.4 | 0.00 | 0.00 | 0.00 | 62 | 1008.3 |
| 20260509184705 | 71 | 199 | 10.4 | 13.9 | 0.00 | 0.00 | 0.00 | 60 | 1008.3 |
| 20260509184205 | 71 | 190 | 8.7 | 12.2 | 0.00 | 0.00 | 0.00 | 62 | 1008.3 |
| 20260509183705 | 71 | 208 | 6.1 | 11.3 | 0.00 | 0.00 | 0.00 | 62 | 1008.4 |
| 20260509182705 | 70 | 195 | 7.8 | 12.2 | 0.00 | 0.00 | 0.00 | 62 | 1008.5 |
| 20260509182205 | 70 | 214 | 9.6 | 13.9 | 0.00 | 0.00 | 0.00 | 62 | 1008.5 |
| 20260509181705 | 70 | 184 | 7.0 | 12.2 | 0.00 | 0.00 | 0.00 | 62 | 1008.6 |
| 20260509181205 | 70 | 199 | 10.4 | 14.8 | 0.00 | 0.00 | 0.00 | 63 | 1008.8 |
| 20260509180705 | 70 | 227 | 8.7 | 13.0 | 0.00 | 0.00 | 0.00 | 64 | 1008.8 |
| 20260509180205 | 70 | 204 | 8.7 | 13.0 | 0.00 | 0.00 | 0.00 | 63 | 1008.9 |
| 20260509175705 | 70 | 194 | 7.8 | 10.4 | 0.00 | 0.00 | 0.00 | 63 | 1009.0 |
| 20260509175205 | 70 | 220 | 7.8 | 13.0 | 0.00 | 0.00 | 0.00 | 62 | 1008.9 |
| 20260509174705 | 70 | 198 | 7.8 | 10.4 | 0.00 | 0.00 | 0.00 | 61 | 1009.0 |
| 20260509174205 | 70 | 181 | 7.8 | 13.0 | 0.00 | 0.00 | 0.00 | 61 | 1009.0 |
| 20260509173705 | 70 | 198 | 7.0 | 13.9 | 0.00 | 0.00 | 0.00 | 62 | 1008.9 |
| 20260509173205 | 70 | 205 | 9.6 | 17.4 | 0.00 | 0.00 | 0.00 | 62 | 1009.0 |
| 20260509172204 | 70 | 224 | 10.4 | 14.8 | 0.00 | 0.00 | 0.00 | 60 | 1008.9 |
| 20260509171705 | 70 | 205 | 10.4 | 14.8 | 0.00 | 0.00 | 0.00 | 60 | 1009.0 |
| 20260509171205 | 70 | 222 | 10.4 | 14.8 | 0.00 | 0.00 | 0.00 | 60 | 1009.0 |
| 20260509170705 | 70 | 213 | 10.4 | 17.4 | 0.00 | 0.00 | 0.00 | 60 | 1009.0 |
| 20260509170204 | 71 | 203 | 11.3 | 17.4 | 0.00 | 0.00 | 0.00 | 60 | 1008.9 |
| 20260509165705 | 71 | 212 | 10.4 | 13.0 | 0.00 | 0.00 | 0.00 | 60 | 1009.0 |
| 20260509165205 | 71 | 229 | 10.4 | 15.6 | 0.00 | 0.00 | 0.00 | 60 | 1009.1 |
| 20260509164705 | 71 | 217 | 11.3 | 15.6 | 0.00 | 0.00 | 0.00 | 60 | 1009.3 |
| 20260509164205 | 72 | 214 | 9.6 | 18.2 | 0.00 | 0.00 | 0.00 | 59 | 1009.0 |
| 20260509163704 | 72 | 206 | 11.3 | 20.0 | 0.00 | 0.00 | 0.00 | 59 | 1009.0 |
| 20260509163205 | 72 | 197 | 13.9 | 22.6 | 0.00 | 0.00 | 0.00 | 59 | 1008.9 |
| 20260509162705 | 72 | 189 | 10.4 | 15.6 | 0.00 | 0.00 | 0.00 | 61 | 1008.9 |
| 20260509162205 | 72 | 216 | 13.0 | 20.9 | 0.00 | 0.00 | 0.00 | 60 | 1009.1 |
| 20260509161205 | 72 | 203 | 13.0 | 19.1 | 0.00 | 0.00 | 0.00 | 60 | 1009.5 |
| 20260509160705 | 71 | 199 | 13.9 | 19.1 | 0.00 | 0.00 | 0.00 | 58 | 1009.4 |
| 20260509160205 | 71 | 197 | 13.9 | 20.0 | 0.00 | 0.00 | 0.00 | 62 | 1009.5 |
| 20260509155705 | 70 | 210 | 14.8 | 17.4 | 0.00 | 0.00 | 0.00 | 62 | 1009.5 |
| 20260509154705 | 70 | 212 | 10.4 | 17.4 | 0.00 | 0.00 | 0.00 | 62 | 1009.3 |
| 20260509154205 | 69 | 214 | 11.3 | 17.4 | 0.00 | 0.00 | 0.00 | 62 | 1009.3 |
| 20260509153705 | 69 | 197 | 8.7 | 14.8 | 0.00 | 0.00 | 0.00 | 62 | 1009.4 |
| 20260509153205 | 69 | 167 | 8.7 | 12.2 | 0.00 | 0.00 | 0.00 | 63 | 1009.6 |
| 20260509152705 | 68 | 8 | 9.6 | 15.6 | 0.00 | 0.00 | 0.00 | 64 | 1009.7 |
| 20260509152205 | 69 | 58 | 11.3 | 17.4 | 0.00 | 0.00 | 0.00 | 62 | 1009.7 |
| 20260509151705 | 69 | 121 | 10.4 | 14.8 | 0.00 | 0.00 | 0.00 | 63 | 1009.7 |
| 20260509151204 | 69 | 220 | 12.2 | 17.4 | 0.00 | 0.00 | 0.00 | 63 | 1009.9 |
| 20260509150705 | 69 | 226 | 10.4 | 17.4 | 0.00 | 0.00 | 0.00 | 62 | 1010.0 |
| 20260509150205 | 68 | 208 | 13.9 | 17.4 | 0.00 | 0.00 | 0.00 | 63 | 1010.2 |
| 20260509145205 | 68 | 219 | 12.2 | 17.4 | 0.00 | 0.00 | 0.00 | 64 | 1010.4 |
| 20260509144705 | 67 | 191 | 11.3 | 15.6 | 0.00 | 0.00 | 0.00 | 65 | 1010.4 |
| 20260509144205 | 67 | 212 | 11.3 | 17.4 | 0.00 | 0.00 | 0.00 | 65 | 1010.3 |
| 20260509143205 | 67 | 230 | 10.4 | 15.6 | 0.00 | 0.00 | 0.00 | 66 | 1010.3 |
| 20260509142705 | 66 | 193 | 8.7 | 13.9 | 0.00 | 0.00 | 0.00 | 68 | 1010.4 |
| 20260509141205 | 65 | 211 | 10.4 | 14.8 | 0.00 | 0.00 | 0.00 | 68 | 1010.6 |
| 20260509140705 | 65 | 200 | 11.3 | 15.6 | 0.00 | 0.00 | 0.00 | 69 | 1010.5 |
| 20260509140205 | 65 | 194 | 9.6 | 13.9 | 0.00 | 0.00 | 0.00 | 69 | 1010.5 |
| 20260509135705 | 65 | 188 | 10.4 | 17.4 | 0.00 | 0.00 | 0.00 | 69 | 1010.5 |
| 20260509135205 | 65 | 195 | 9.6 | 13.9 | 0.00 | 0.00 | 0.00 | 69 | 1010.6 |
| 20260509134205 | 65 | 209 | 8.7 | 15.6 | 0.00 | 0.00 | 0.00 | 69 | 1010.6 |
| 20260509133705 | 65 | 192 | 8.7 | 14.8 | 0.00 | 0.00 | 0.00 | 70 | 1010.5 |
| 20260509133205 | 65 | 198 | 10.4 | 17.4 | 0.00 | 0.00 | 0.00 | 69 | 1010.6 |
| 20260509132705 | 65 | 183 | 8.7 | 14.8 | 0.00 | 0.00 | 0.00 | 70 | 1010.6 |
| 20260509132205 | 65 | 204 | 11.3 | 17.4 | 0.00 | 0.00 | 0.00 | 70 | 1010.8 |
| 20260509131705 | 65 | 255 | 11.3 | 17.4 | 0.00 | 0.00 | 0.00 | 71 | 1010.7 |
| 20260509131205 | 65 | 213 | 8.7 | 17.4 | 0.00 | 0.00 | 0.00 | 70 | 1010.6 |
| 20260509130705 | 65 | 212 | 12.2 | 17.4 | 0.00 | 0.00 | 0.00 | 70 | 1010.7 |
| 20260509130205 | 65 | 179 | 11.3 | 17.4 | 0.00 | 0.00 | 0.00 | 71 | 1010.7 |
| 20260509125204 | 65 | 216 | 11.3 | 14.8 | 0.00 | 0.00 | 0.00 | 71 | 1010.7 |
| 20260509124705 | 65 | 201 | 11.3 | 21.7 | 0.00 | 0.00 | 0.00 | 70 | 1010.7 |
| 20260509124205 | 64 | 172 | 12.2 | 19.1 | 0.00 | 0.00 | 0.00 | 71 | 1010.7 |
| 20260509123705 | 64 | 215 | 10.4 | 14.8 | 0.00 | 0.00 | 0.00 | 71 | 1010.7 |
| 20260509123205 | 64 | 199 | 11.3 | 15.6 | 0.00 | 0.00 | 0.00 | 72 | 1010.7 |
| 20260509122705 | 63 | 209 | 11.3 | 17.4 | 0.00 | 0.00 | 0.00 | 74 | 1010.7 |
| 20260509121205 | 62 | 203 | 13.0 | 18.2 | 0.00 | 0.00 | 0.00 | 75 | 1010.8 |
| 20260509120705 | 62 | 208 | 11.3 | 17.4 | 0.00 | 0.00 | 0.00 | 75 | 1010.8 |
| 20260509120205 | 62 | 214 | 12.2 | 17.4 | 0.00 | 0.00 | 0.00 | 76 | 1010.8 |
| 20260509115705 | 61 | 207 | 11.3 | 17.4 | 0.00 | 0.00 | 0.00 | 76 | 1010.7 |
| 20260509115205 | 61 | 42 | 8.7 | 17.4 | 0.00 | 0.00 | 0.00 | 75 | 1010.7 |
| 20260509114705 | 61 | 208 | 10.4 | 17.4 | 0.00 | 0.00 | 0.00 | 76 | 1010.8 |
| 20260509113705 | 61 | 205 | 11.3 | 15.6 | 0.00 | 0.00 | 0.00 | 77 | 1010.7 |
| 20260509113204 | 61 | 214 | 11.3 | 14.8 | 0.00 | 0.00 | 0.00 | 77 | 1010.7 |